map of VAA home
VAA - Airport
Location
City:  Vaasa, Pohjanmaa (Österbotten, Ostrobothnia), Finland
ICAO:EFVA
IATA:VAA

Details
Type:Airport (Aerodrome, Airfield)
Use:Public/Civil, International (customs port of entry)
Latitude:63°03'02"N (63.050650)
Longitude:21°45'44"E (21.762175)
Datum:WGS 1984
Elevation:19 ft (6 m)
Variation:8.39°E (WMM2015 magnetic declination)
0.17° annual change
Runways:1
Longest:8727 × 157 ft (2660 × 48 m), paved

Time
Time Zone:UTC+2 (DST+3)
Local Time:

Weather
METAR:EFVA 221650Z AUTO 01012KT 9999 BKN011/// OVC016/// 12/10 Q1016
TAF:EFVA 221430Z 2215/2315 02012KT 9999 BKN008
BECMG 2218/2220 FEW012
TEMPO 2300/2303 BKN008
BECMG 2303/2305 BKN015

Related Locations
Nearby:
Farthest:NZTB: 11228 mi / 18070 km
Terra Nova Bay [Mario Zucchelli Station], AQ

Find:

   beyond  
but within

Other Information
Maps:
NOTAMs:
Links:
Sources:

  
flag of Finland   

Sectional Chart

Flight Planning
at skyvector.com

Satellite Image

Google Maps Satellite view

 

Copyright © 2004-2017 Karl L. Swartz. All rights reserved.
The Great Circle Mapper name and logo are trademarks of the Great Circle Mapper.
All other trademarks mentioned herein belong to their respective owners.
Please see credits for attibutions and further copyright information.

  Follow gcmap on Facebook Follow gcmap on Twitter Follow gcmap on Google+ GCmap on LinkedIn

hCard Microformat

Geo Microformat